Location: Unspecified
(43.4680°N, 87.1740°E)
Time: 21:06:02
(UTC+00:00)

CZ-2D R/B - Pass Details

Date: 17 April 2021
Orbit: 792 x 844 km, 98.7° (Epoch: 11 May)

Event Time Altitude Azimuth Distance (km) Brightness Sun altitude
Rises 19:28:29 0° 17° (NNE) 3,412 6.4 -32.9°
Reaches altitude 10° 19:30:54 10° 22° (NNE) 2,474 5.5 -32.8°
Enters shadow 19:35:16 49° 59° (ENE) 1,077 2.9 -32.4°
